DELTA 1 DEB, 27728

Orbit data source: Space-Track

DELTA 1 DEB, 27728 is space debris in LEO originally from a launch on Thu, 29 Jul 1976 UTC launched from the Air Force Western Test Range (AFWTR). Debris objects in space refer to the collection of defunct objects orbiting the Earth. Examples of debris include non-operational satellites, rocket bodies, and fragments generated from explosions, collisions, or faulty payload assembly.

Loading next visibility...
Identifier
27728, 1976-077FT
Orbit
LEO
Country
Flag of USUS
Related business
Manufacturer
Unknown
Mission
Spacecraft
Bus & Motor
Unknown
Mass
Unknown
Launch date (UTC)
1976-07-29 (50 years ago)
Launch vehicle
Unknown
Launch site
Air Force Western Test Range (AFWTR)
Object type
Payload
Rocket body
Debris
Shape & HBR
Unknown shape, 0.1 m
Radar Cross Section
Medium (>0.1 m² and <1 m²)

Expand to show TLE details & history
Last TLE update: 19 hours ago

TLE from 19 hours ago
0 DELTA 1 DEB
1 27728U 76077FT  26265.26301947 -.00000152  00000-0 -13634-2 0  9995
2 27728 102.4214   5.1184 0369277  17.3512   6.4883 11.85829110437799
Epoch: 2026-09-22T06:18Z
TLE epoch observation values (Epoch: 2026-09-22T06:18:44.882Z)
Latitude
23.7598°
Longitude
-96.23609°
Altitude
1,449.472 km
Speed
7.269 km/s
True Right ascension
23h 58m 19s
True Declination
23° 38' 40"
Sunlit
Object was in full shadow at epoch
Visualization orbit readout
Latitude
Unknown
Longitude
Unknown
Altitude
Unknown
Speed
Unknown
Apparent Right ascension
Unknown
Apparent Declination
Unknown
Sunlit
N/A
Visualization observer readout
Local Sidereal Time
18:36:43
Azimuth
Unknown
Elevation
Unknown
Doppler factor
Unknown
Orbital elements
Apogee altitude
2,042.484 km
Perigee altitude
1,442.723 km
Semi-major axis
8,120.741 km
Eccentricity
0.03693
Inclination
102.4214°
RAAN
5.1184°
Arg. of periapsis
17.3512°
True anomaly
6.9894°
Mean anomaly
6.4883°
Eccentric anomaly
6.73649°
Mean motion
2.96585 °/min
Orbital period
121.38 mins
BSTAR
-0.0013634
Loading maneuver chart data...
Computing Atmospheric mass density...
Loading historical data...
Loading historical data...
Loading historical data...
Loading historical data...
Loading historical data...
Loading historical data...
Loading historical data...

Documentation

Showing up to 5 results
|